Terminal Aerodrome Forecast
Issued by NWS Memphis, TN

Home | Current Version | Previous Version | Text Only | Print | Product List | Glossary On
Versions: 1 2 3 4 5 6 7 8 9 10 11 12
000
FTUS44 KMEG 052320
TAFMKL
TAF
KMKL 052320Z 0600/0624 15007KT P6SM FEW070
     FM060200 VRB03KT P6SM SKC
     FM061500 17007KT P6SM SCT060 SCT250=

USA.gov is the U.S. government's official web portal to all federal, state and local government web resources and services.